[[{"header":{"parameterUnit":"m.s-1","parameterCategory":1,"la1":30.2991,"la2":30.254,"lo1":-89.0895,"lo2":-89.0444,"dy":0.0017,"dx":0.0017,"nx":28,"ny":28,"refTime":"2024-12-12T03:00:00:Z","depth":0,"parameterNumber":2,"parameterNumberName":"U-component_of_WINDS"},"data":[0,0,0,0,0,0,0,0,0,0,0,0,0,0,0,0,0,0,0,0,0,0,0,0,0,0,0,0,0,0,0,0,0,0,0,0,0,0,0,0,0,0,0,0,0,0,0,0,0,0,0,0,0,0,0,0,0,0,-3.9365,-3.9366,0,-3.9418,-3.9419,-3.9419,-3.9272,-3.9267,-3.9263,-3.9258,-3.9314,-3.932,-3.9326,0,0,0,0,0,0,0,0,0,0,0,0,0,-3.9138,-3.9143,-3.9365,-3.9366,-3.9367,-3.9418,-3.9419,-3.9419,-3.9273,-3.9267,-3.9261,-3.9256,-3.9313,-3.9319,-3.9326,0,0,0,0,0,0,0,0,0,0,0,0,0,-3.9219,-3.9145,-3.9365,-3.93,-3.9294,-3.9418,-3.9419,-3.942,-3.9274,-3.9267,-3.926,-3.9254,-3.931,-3.9319,-3.9327,-3.9517,0,0,-3.9353,-3.9357,0,0,0,0,0,0,0,0,-3.9214,-3.9227,-3.9309,-3.9304,-3.9298,-3.9331,-3.9359,-3.9452,-3.9275,-3.9282,-3.9258,-3.925,-3.9326,-3.9333,-3.9358,-3.952,-3.9522,-3.9354,-3.9359,-3.9363,-3.9366,0,0,0,0,0,0,0,-3.9209,-3.9224,-3.9386,-3.931,-3.9304,-3.9268,-3.9271,-3.9376,-3.9342,-3.9281,-3.927,-3.9278,-3.9322,-3.935,-3.9358,-3.9523,-3.9354,-3.9362,-3.9367,-3.937,-3.9843,-3.985,0,0,0,0,0,0,-3.9212,-3.922,-3.9384,-3.9388,-3.9239,-3.9277,-3.9282,-3.9328,-3.934,-3.9335,-3.9284,-3.9271,-3.9338,-3.9348,-3.9359,-3.9582,-3.9363,-3.9371,-3.9376,-3.9836,-3.9845,-3.9853,0,0,0,0,0,0,-3.9207,-3.9228,-3.9382,-3.9301,-3.9318,-3.9288,-3.9342,-3.9332,-3.936,-3.9342,-3.9336,-3.9319,-3.9333,-3.9347,-3.9479,-3.9582,-3.9375,-3.9383,-3.9827,-3.9839,-3.9849,-4.0031,0,0,0,0,0,0,-3.9201,-3.9227,-3.9299,-3.9304,-3.9323,-3.9502,-3.9348,-3.9338,-3.9375,-3.9359,-3.9373,-3.9369,-3.9329,-3.9467,-3.9487,-3.959,-3.939,-3.9818,-3.9832,-3.9845,-4.0016,-4.0047,-4.0074,0,0,0,0,0,-3.9194,-3.9349,-3.9304,-3.9324,-3.9412,-3.9508,-3.9519,-3.9469,-3.9384,-3.9456,-3.9445,-3.9369,-3.9567,-3.9481,-3.9503,-3.9611,-3.9811,-3.9828,-3.9844,-4.0003,-4.0041,-4.0073,0,0,0,0,0,0,-3.9358,-3.9348,-3.9298,-3.9459,-3.9485,-3.9483,-3.9572,-3.9511,-3.9562,-3.9545,-3.9481,-3.9485,-3.9629,-3.9632,-3.9537,-3.9795,-3.9675,-3.9697,-3.9788,-3.9824,-3.9852,-3.9849,-3.9397,0,0,0,0,0,-3.9413,-3.9491,-3.9478,-3.9621,-3.9637,-3.9603,-3.9643,-3.9601,-3.9626,-3.9637,-3.9635,-3.9662,-3.973,-3.9777,-3.9839,-4.0015,-4.0016,-4.0099,-4.0128,-4.0152,-4.0172,-4.0265,-4.0302,-3.9908,-3.9907,-3.9907,0,0,-3.9527,-3.9531,-3.9585,-3.9655,-3.967,-3.9752,-3.9613,-3.9706,-3.9767,-3.9651,-3.9775,-3.9775,-3.9801,-3.9956,-4.0024,-3.9963,-4.0281,-4.0173,-4.0193,-4.02,-4.0286,-4.0324,-4.0357,-3.9919,-3.9917,-3.9915,0,0,-3.9778,-3.9789,-3.9909,-3.9927,-3.9952,-3.9928,-3.9957,-3.9963,-3.9958,-4.0081,-3.9996,-4.0067,-4.0186,-4.0208,-4.0235,-4.0493,-4.0425,-4.0515,-4.0667,-4.0758,-4.0789,-4.0817,-4.0909,-4.0943,-4.0534,-4.0535,-4.0535,0,-3.9917,-4.0037,-3.9979,-4.0078,-4.0111,-4.0008,-4.013,-4.015,-4.0195,-4.022,-4.0151,-4.0298,-4.0309,-4.0467,-4.0529,-4.0554,-4.0586,-4.0513,-4.079,-4.0816,-4.0841,-4.0928,-4.0963,-4.0546,-4.0544,-4.0543,-4.0542,0,-4.0207,-4.0292,-4.0386,-4.0431,-4.0474,-4.0584,-4.0542,-4.0594,-4.0548,-4.0532,-4.0658,-4.0667,-4.0729,-4.0763,-4.072,-4.0915,-4.0877,-4.08,-4.0678,-4.089,-4.0971,-4.1004,-4.0561,-4.0557,-4.0554,-4.0551,0,0,-4.0564,-4.0574,-4.061,-4.0628,-4.0647,-4.0712,-4.0816,-4.0876,-4.0921,-4.0954,-4.1041,-4.1144,-4.1072,-4.1103,-4.1061,-4.1142,-4.1345,-4.1054,-4.1054,-4.1109,-4.1561,-4.1619,-4.1659,-4.13,-4.1306,-4.1311,-4.1559,0,-4.0811,-4.0991,-4.0941,-4.112,-4.1198,-4.1101,-4.1192,-4.1214,-4.1201,-4.1265,-4.125,-4.1324,-4.1224,-4.1242,-4.1316,-4.1305,-4.1435,-4.1286,-4.138,-4.1384,-4.1378,-4.1701,-4.1763,-4.1997,-4.159,-4.1595,-4.1599,0,-4.1124,-4.1169,-4.1357,-4.1362,-4.1392,-4.1475,-4.1525,-4.1587,-4.161,-4.1594,-4.1628,-4.157,-4.1673,-4.155,-4.1692,-4.1591,-4.1626,-4.1626,-4.1634,-4.1642,-4.1505,-4.1718,-4.207,-4.2106,-4.1648,-4.1644,-4.1641,0,-4.1366,-4.1474,-4.1599,-4.1618,-4.1627,-4.1688,-4.1695,-4.171,-4.1749,-4.1792,-4.1817,-4.1872,-4.1903,-4.1948,-4.1906,-4.182,-4.2054,-4.1927,-4.2045,-4.2046,-4.21,-4.2097,-4.2463,-4.2122,-4.2121,-4.2121,-4.212,0,-4.1648,-4.1767,-4.1708,-4.1786,-4.1915,-4.1856,-4.1986,-4.1982,-4.1996,-4.2071,-4.1991,-4.2063,-4.2003,-4.207,-4.2038,-4.216,-4.2175,-4.2166,-4.2156,-4.2174,-4.2175,-4.2197,-4.218,-4.213,-4.2128,-4.2126,-4.2124,0,-4.1941,-4.1907,-4.2037,-4.2035,-4.2037,-4.2133,-4.213,-4.2202,-4.2182,-4.2278,-4.2297,-4.2267,-4.2342,-4.2304,-4.2382,-4.236,-4.2518,-4.2486,-4.2511,-4.2503,-4.2622,-4.2612,-4.3016,-4.3066,-4.2692,-4.2696,-4.2699,0,-4.2124,-4.2212,-4.2219,-4.2263,-4.2275,-4.2347,-4.2386,-4.2331,-4.2375,-4.2406,-4.2474,-4.2541,-4.2593,-4.2716,-4.2702,-4.276,-4.273,-4.2867,-4.2738,-4.2753,-4.2732,-4.2728,-4.2736,-4.2894,-4.2898,-4.2902,-4.2904,0,-4.2452,-4.243,-4.2488,-4.2541,-4.2589,-4.2628,-4.266,-4.2701,-4.2647,-4.27,-4.2775,-4.2814,-4.2893,-4.2961,-4.3012,-4.3018,-4.2954,-4.2945,-4.2975,-4.2995,-4.3005,-4.3001,-4.2582,-4.2936,-4.2933,-4.2931,-4.2929,-4.2928,-4.2695,-4.2769,-4.2785,-4.2853,-4.2871,-4.2903,-4.297,-4.2958,-4.3019,-4.3078,-4.3042,-4.313,-4.3149,-4.321,-4.3226,-4.3294,-4.3239,-4.3283,-4.3295,-4.3307,-4.3323,-4.2994,-4.3303,-4.3302,-4.3301,-4.33,-4.33,0,-4.3019,-4.3024,-4.3087,-4.3134,-4.3187,-4.3119,-4.3151,-4.32,-4.3279,-4.3302,-4.3353,-4.3439,-4.3504,-4.3494,-4.3553,-4.361,-4.3582,-4.3628,-4.3623,-4.3626,-4.3368,-4.3336,-4.365,-4.365,-4.3649,-4.3649,-4.3649,-4.3649,-4.3193,-4.3315,-4.3295,-4.3425,-4.3429,-4.3514,-4.3538,-4.3567,-4.3585,-4.3684,-4.3737,-4.373,-4.374,-4.3799,-4.3856,-4.3851,-4.3877,-4.3935,-4.3919,-4.3679,-4.3644,-4.3611,-4.3581,-4.394,-4.3941,-4.4171,-4.4173,-4.4175]},{"header":{"parameterUnit":"m.s-1","parameterCategory":1,"la1":30.2991,"la2":30.254,"lo1":-89.0895,"lo2":-89.0444,"dy":0.0017,"dx":0.0017,"nx":28,"ny":28,"refTime":"2024-12-12T03:00:00:Z","depth":0,"parameterNumber":3,"parameterNumberName":"V-component_of_WINDS"},"data":[0,0,0,0,0,0,0,0,0,0,0,0,0,0,0,0,0,0,0,0,0,0,0,0,0,0,0,0,0,0,0,0,0,0,0,0,0,0,0,0,0,0,0,0,0,0,0,0,0,0,0,0,0,0,0,0,0,0,-2.4878,-2.4879,0,-2.4902,-2.4902,-2.4903,-2.4876,-2.4875,-2.4874,-2.4873,-2.4895,-2.4897,-2.4898,0,0,0,0,0,0,0,0,0,0,0,0,0,-2.4807,-2.4808,-2.4878,-2.4879,-2.4879,-2.4902,-2.4902,-2.4903,-2.4876,-2.4875,-2.4874,-2.4872,-2.4895,-2.4897,-2.4898,0,0,0,0,0,0,0,0,0,0,0,0,0,-2.4835,-2.4809,-2.4878,-2.4868,-2.4868,-2.4902,-2.4902,-2.4903,-2.4876,-2.4875,-2.4873,-2.4872,-2.4894,-2.4896,-2.4899,-2.4943,0,0,-2.4906,-2.4907,0,0,0,0,0,0,0,0,-2.4833,-2.4838,-2.487,-2.4869,-2.4869,-2.4885,-2.4885,-2.4916,-2.4877,-2.4873,-2.4873,-2.4871,-2.4893,-2.4895,-2.4903,-2.4944,-2.4945,-2.4906,-2.4907,-2.4908,-2.4909,0,0,0,0,0,0,0,-2.4832,-2.4836,-2.4888,-2.487,-2.4869,-2.4862,-2.4864,-2.4891,-2.4891,-2.4873,-2.4871,-2.4875,-2.4892,-2.4901,-2.4903,-2.4945,-2.4906,-2.4908,-2.4909,-2.491,-2.5022,-2.5024,0,0,0,0,0,0,-2.4831,-2.4835,-2.4887,-2.4888,-2.4847,-2.4864,-2.4867,-2.4881,-2.4891,-2.4891,-2.4876,-2.4873,-2.4897,-2.4901,-2.4904,-2.4955,-2.4908,-2.491,-2.4912,-2.5021,-2.5023,-2.5024,0,0,0,0,0,0,-2.483,-2.4836,-2.4886,-2.4861,-2.4867,-2.4867,-2.4883,-2.4882,-2.4891,-2.4893,-2.4892,-2.4885,-2.4896,-2.4901,-2.4933,-2.4955,-2.4911,-2.4914,-2.5019,-2.5021,-2.5023,-2.5059,0,0,0,0,0,0,-2.4828,-2.4836,-2.4853,-2.4862,-2.4868,-2.4916,-2.4884,-2.4884,-2.4895,-2.4892,-2.4901,-2.4901,-2.4896,-2.493,-2.4935,-2.4958,-2.4915,-2.5017,-2.502,-2.5023,-2.5056,-2.5062,-2.5068,0,0,0,0,0,-2.4825,-2.4862,-2.4854,-2.4861,-2.4891,-2.4917,-2.4921,-2.4914,-2.4897,-2.4914,-2.4915,-2.4901,-2.4952,-2.4933,-2.494,-2.4963,-2.5015,-2.5019,-2.5022,-2.5053,-2.5061,-2.5067,0,0,0,0,0,0,-2.4856,-2.4863,-2.4855,-2.4896,-2.4906,-2.4913,-2.4934,-2.4923,-2.4939,-2.4935,-2.4926,-2.4928,-2.4962,-2.4966,-2.4945,-2.5005,-2.4981,-2.4986,-2.5002,-2.5009,-2.5015,-2.5013,-2.4917,0,0,0,0,0,-2.4868,-2.4889,-2.4894,-2.493,-2.4936,-2.4934,-2.4945,-2.494,-2.495,-2.4954,-2.4957,-2.4967,-2.4985,-2.4998,-2.5015,-2.5056,-2.5057,-2.5075,-2.5081,-2.5086,-2.509,-2.5111,-2.5118,-2.5036,-2.5036,-2.5036,0,0,-2.4891,-2.4898,-2.4912,-2.4936,-2.4944,-2.4965,-2.4938,-2.4962,-2.4978,-2.4957,-2.4988,-2.4991,-2.5001,-2.5038,-2.5054,-2.5042,-2.5113,-2.5091,-2.5094,-2.5096,-2.5115,-2.5123,-2.513,-2.5039,-2.5038,-2.5038,0,0,-2.4946,-2.4954,-2.4984,-2.4992,-2.5003,-2.5002,-2.5009,-2.5017,-2.5018,-2.5049,-2.5034,-2.5052,-2.5084,-2.5091,-2.51,-2.5156,-2.5143,-2.5162,-2.5193,-2.5213,-2.5219,-2.5225,-2.5244,-2.5251,-2.5166,-2.5166,-2.5166,0,-2.4974,-2.5007,-2.5,-2.5026,-2.5036,-2.5018,-2.5048,-2.5055,-2.5072,-2.5079,-2.5065,-2.5104,-2.511,-2.5147,-2.5161,-2.5168,-2.5175,-2.516,-2.5219,-2.5225,-2.523,-2.5247,-2.5255,-2.5168,-2.5168,-2.5168,-2.5167,0,-2.504,-2.5063,-2.5086,-2.5102,-2.5115,-2.5142,-2.5138,-2.5152,-2.5145,-2.5144,-2.5175,-2.5181,-2.5199,-2.5207,-2.5201,-2.5244,-2.5235,-2.5221,-2.5195,-2.524,-2.5256,-2.5263,-2.5171,-2.517,-2.517,-2.5169,0,0,-2.5115,-2.5127,-2.5135,-2.5141,-2.5152,-2.517,-2.5195,-2.5213,-2.5224,-2.5235,-2.5256,-2.5283,-2.5269,-2.5278,-2.5272,-2.529,-2.5332,-2.5272,-2.5272,-2.5282,-2.5378,-2.5388,-2.5397,-2.5324,-2.5325,-2.5326,-2.5377,0,-2.5168,-2.5214,-2.5208,-2.5251,-2.5271,-2.5254,-2.5276,-2.5285,-2.5285,-2.5301,-2.5301,-2.532,-2.5301,-2.5306,-2.5323,-2.5323,-2.5351,-2.532,-2.5341,-2.5342,-2.5338,-2.5405,-2.5417,-2.5464,-2.5383,-2.5384,-2.5385,0,-2.5237,-2.5251,-2.5296,-2.5303,-2.5311,-2.5331,-2.5346,-2.5362,-2.5371,-2.537,-2.538,-2.537,-2.5394,-2.537,-2.5402,-2.5381,-2.539,-2.5391,-2.5393,-2.5394,-2.5366,-2.5407,-2.5479,-2.5486,-2.5396,-2.5395,-2.5394,0,-2.5285,-2.5315,-2.5346,-2.5352,-2.5361,-2.5375,-2.538,-2.5387,-2.5398,-2.541,-2.5417,-2.5432,-2.544,-2.5452,-2.5446,-2.5428,-2.5479,-2.5454,-2.5478,-2.5478,-2.5488,-2.5488,-2.5562,-2.5496,-2.5496,-2.5496,-2.5496,0,-2.5345,-2.5373,-2.5367,-2.5386,-2.5416,-2.5409,-2.5438,-2.5441,-2.5447,-2.5465,-2.5452,-2.5469,-2.5461,-2.5477,-2.5472,-2.5499,-2.5503,-2.5502,-2.55,-2.5503,-2.5503,-2.5508,-2.5504,-2.5498,-2.5497,-2.5497,-2.5496,0,-2.5404,-2.5401,-2.5433,-2.5439,-2.5441,-2.5463,-2.5467,-2.5484,-2.5483,-2.5506,-2.551,-2.5509,-2.5527,-2.5522,-2.5542,-2.5539,-2.5573,-2.5568,-2.557,-2.5568,-2.5592,-2.5589,-2.5671,-2.5681,-2.5609,-2.561,-2.561,0,-2.5441,-2.5462,-2.547,-2.5481,-2.5487,-2.5505,-2.5515,-2.5509,-2.552,-2.5531,-2.5546,-2.5563,-2.5576,-2.5606,-2.5605,-2.562,-2.5614,-2.5642,-2.5616,-2.5618,-2.5613,-2.5612,-2.5613,-2.5647,-2.5648,-2.5648,-2.5649,0,-2.5508,-2.5506,-2.5522,-2.5537,-2.555,-2.5561,-2.5571,-2.5581,-2.5575,-2.5588,-2.5606,-2.5616,-2.5636,-2.5653,-2.5666,-2.567,-2.5658,-2.5657,-2.5663,-2.5665,-2.5665,-2.5664,-2.5583,-2.5655,-2.5654,-2.5654,-2.5654,-2.5653,-2.5557,-2.5574,-2.5582,-2.5599,-2.5606,-2.5616,-2.5632,-2.5633,-2.5648,-2.5664,-2.5659,-2.5679,-2.5686,-2.5703,-2.5708,-2.5724,-2.5713,-2.5722,-2.5724,-2.5726,-2.5729,-2.5664,-2.5726,-2.5726,-2.5726,-2.5726,-2.5726,0,-2.5621,-2.5626,-2.5642,-2.5657,-2.567,-2.5659,-2.5669,-2.5681,-2.5699,-2.5707,-2.572,-2.5741,-2.5756,-2.5758,-2.5772,-2.5784,-2.5779,-2.5788,-2.5787,-2.5787,-2.5738,-2.5731,-2.5792,-2.5792,-2.5792,-2.5792,-2.5792,-2.5792,-2.5657,-2.5685,-2.5683,-2.5714,-2.5718,-2.5738,-2.5745,-2.5753,-2.576,-2.5783,-2.5796,-2.5797,-2.5802,-2.5816,-2.583,-2.583,-2.5835,-2.5846,-2.5844,-2.5797,-2.5791,-2.5785,-2.5778,-2.5848,-2.5848,-2.5892,-2.5892,-2.5892]}]]